Merrill Field Anchorage US
ICAO: PAMR
IATA:
Category: Medium
Scheduled Services:

Elevation: 137 ft
TransAlt. 18000 ft.

Airport Communications:
ANCHORAGE APP/DEP:119.1
ATIS:124.25
CTAF:126
KENAI RDO:122.2
GND:121.7
KENAI RDO:122.3
TWR:126
UNICOM:122.95

PAMR Zoom In..

If you have problems with the map follow the link
https://www.worldairports.se/pages/airport.php?
ICAO=PAMR

Runways:

(A) RW 05 length 2000 ft width 60 ft
---- / hdg 47

(B) RW 07 length 4000 ft width 100 ft
---- / hdg 71

(C) RW 16 length 2640 ft width 75 ft
---- / hdg 161

(D) RW 23 length 2000 ft width 60 ft
---- / hdg 227

(E) RW 25 length 4000 ft width 100 ft
---- / hdg 251

(F) RW 34 length 2640 ft width 75 ft
---- / hdg 341

Location; PAMR
Day. 16 / Time. 11.53 Zulu
* Altimeter: 30.18
* Temperature: -05° c. -23°f.
* Wind from: 100° Speed 03 kn.
Dewpoint: -07° c.
Visibility: 10 Statute Miles.
Clouds: Clear (automated report).

PAMR 161153Z 10003KT 10SM CLR M05/M07 A3018 RMK AO2 SLP223 T10501072 11039 21078 55002


Wind From 100°
Speed 03 kn.

 
 
jpsmedia.com for Web Design worldairports.se 2018   terms of use